Home   Weather   Göttingen   Past weeks

Flag for Germany Past Weather in Göttingen, Lower Saxony, Germany — Yesterday and Last 2 Weeks

Now
66 °F

Scattered clouds.


Feels Like: 66 °F
Forecast: 56 / 74 °F
Wind: 16 mph from Southwest

Location: Kassel / Calden

Current Time: Jul 28, 2017 at 1:08:52 pm

Latest Report: Jul 28, 2017 at 12:20 pm


Visibility: N/A

Pressure: 29.89 "Hg

Humidity: 52%

Dew Point: 48 °F

Location of GöttingenLocation

Past Weather in Göttingen — Graph

°F

Göttingen Temperature Yesterday

Maximum temperature yesterday: 70 °F (at 2:20 pm)
Minimum temperature yesterday: 54 °F (at 12:20 am)
Average temperature yesterday: 64 °F

High & Low Weather Summary for the Past Weeks

 TemperatureHumidityPressure
High90 °F (Jul 19, 4:20 pm)100% (Jul 14, 3:20 am)30.24 "Hg (Jul 14, 3:20 am)
Low48 °F (Jul 14, 4:50 am)38% (Jul 19, 4:20 pm)29.65 "Hg (Jul 25, 7:20 pm)
Average64 °F79%29.95 "Hg
* Reported Jul 13 11:20 am — Jul 28 11:50 am, Göttingen. Weather by CustomWeather, © 2017

Note: Actual official high and low records may vary slightly from our data, if they occured in-between our weather recording intervals... More about our weather records

Advertising

Göttingen Weather History for the Previous 24 Hours

Scroll right to see more
 ConditionsComfort  
Time TempWeatherWind HumidityBarometerVisibility
11:50 am
Fri, Jul 28
66 °FPartly sunny.13 mph56%29.89 "HgN/A
11:20 am64 °FPartly sunny.14 mph60%29.89 "HgN/A
10:50 am64 °FPartly sunny.12 mph64%29.89 "HgN/A
10:20 am63 °FScattered clouds.16 mph64%29.86 "HgN/A
9:50 am63 °FScattered clouds.12 mph68%29.86 "HgN/A
9:20 am61 °FScattered clouds.10 mph72%29.86 "HgN/A
8:50 am61 °FPassing clouds.9 mph77%29.86 "HgN/A
8:20 am61 °FPassing clouds.3 mph88%29.86 "HgN/A
7:50 am57 °FScattered clouds.2 mph100%29.86 "HgN/A
7:20 am55 °FScattered clouds.1 mph100%29.83 "HgN/A
3:50 am54 °FClear.5 mph100%29.80 "Hg10 mi
3:20 am54 °FClear.5 mph100%29.80 "Hg10 mi
12:20 am59 °FClear.3 mph100%29.77 "Hg10 mi
11:50 pm
Thu, Jul 27
59 °FPassing clouds.5 mph100%29.77 "HgN/A
11:20 pm61 °FLight rain. Partly cloudy.1 mph88%29.77 "HgN/A
10:50 pm61 °FThundershowers. Passing clouds.6 mph88%29.77 "HgN/A
10:20 pm61 °FThundershowers. Passing clouds.6 mph94%29.77 "HgN/A
9:50 pm63 °FPassing clouds.3 mph94%29.77 "HgN/A
9:20 pm63 °FPartly cloudy.1 mph94%29.74 "HgN/A
8:20 pm64 °FBroken clouds.2 mph83%29.74 "HgN/A
7:50 pm66 °FScattered clouds.3 mph73%29.74 "HgN/A
7:20 pm68 °FPartly sunny.5 mph69%29.74 "HgN/A
6:50 pm68 °FPassing clouds.6 mph69%29.74 "HgN/A
6:20 pm68 °FPassing clouds.3 mph69%29.74 "HgN/A
5:50 pm66 °FOvercast.5 mph68%29.77 "HgN/A
5:20 pm66 °FPartly sunny.7 mph73%29.77 "HgN/A
4:50 pm68 °FBroken clouds.9 mph69%29.77 "HgN/A
4:20 pm68 °FScattered clouds.8 mph83%29.74 "HgN/A
3:50 pm68 °FPartly sunny.8 mph78%29.74 "HgN/A
3:20 pm66 °FRain showers. Broken clouds.14 mph78%29.74 "HgN/A
2:50 pm70 °FPartly sunny.7 mph73%29.74 "HgN/A
2:20 pm70 °FPartly sunny.3 mph69%29.74 "HgN/A
1:50 pm68 °FBroken clouds.7 mph78%29.77 "HgN/A
1:20 pm68 °FBroken clouds.8 mph78%29.77 "HgN/A
Weather by CustomWeather, © 2017

See weather overviewHow to use our weather pages